SCP
0 0 -0 0 0 0 0 0 0 0 0 0 -0 -0 -0 -0 -0 -0 -0 0 0 0 -0 -0 -0 -0 -0 0 0 0 0 0 -0 0 0 0 0 0 0 -0 0 0 0
0 0 0 0 0 0 0 0 0 0 0 -0 -0 -0 0 0 -0 0 -0 -0 -0 -0 -0 0 -0 0 0 0 0 0 0 0 0 0 0 0 0 0 0 0 0 0 0
0 0 0 0 0 0 0 0 0 0 -0 -0 -0 0 -0 -0 -0 0 -0 -0 -0 0 0 0 0 0 0 0 0 0 0 0 0 0 0 0 0 0 0 0 0 0 0
0 0 0 0 0 0 0 0 -0 -0 -0 -0 -0 -0 -0 -0 -0 -0 -0 -0 0 0 0 0 0 0 0 0 0 0 0 0 0 0 0 0 0 0 0 0 0 0 0
0 0 0 0 0 0 0 0 -0 -0 -0 -0 -0 -0 -0 -0 0 0 0 0 0 0 0 0 0 0 0 0 0 0 0 0 0 0 0 0 0 0 0 0 0 0 0
0 0 0 0 0 0 0 0 -0 -0 -0 -0 -0 -0 0 0 0 0 0 0 0 0 0 0 0 0 0 0 0 0 0 0 0 0 0 0 0 0 0 0 0 0 0
0 0 0 0 0 0 0 0 -0 -0 0 0 0 0 0 0 0 0 0 0 0 0 0 0 0 0 0 0 0 0 0 0 0 0 0 0 0 0 0 0 0 0 0
0 0 0 0 0 0 0 0 0 0 0 0 0 0 0 0 0 0 0 0 0 0 0 0 0 0 0 0 0 0 0 0 0 0 0 0 0 0 0 0 0 0 0
0 0 0 0 0 0 0 0 0 0 0 0 0 0 0 0 0 0 0 0 0 0 0 0 0 0 0 0 0 0 0 0 0 0 0 0 0 0 0 0 0 0 0
0 0 0 0 0 0 0 0 0 0 0 0 0 0 0 0 0 0 0 0 0 0 0 0 0 0 0 0 0 0 0 0 0 0 0 0 0 0 0 0 0 0 0
0 0 0 0 0 0 0 0 0 0 0 0 0 0 0 0 0 0 0 0 0 0 0 0 0 0 0 0 0 0 0 0 0 0 0 0 0 0 0 0 0 0 0
-0 -0 0 0 0 0 0 0 0 0 0 0 0 0 0 0 0 0 0 0 0 0 0 0 0 0 0 0 0 0 0 0 0 0 0 0 0 0 0 0 0 0 0
-0 0 0 0 0 0 0 0 0 0 0 0 0 0 0 0 0 0 0 0 0 0 0 0 0 0 0 0 0 0 0 0 0 0 0 0 0 0 0 0 0 0 0
-0 -0 0 0 0 0 0 0 0 0 0 0 0 0 0 0 0 0 0 0 0 0 0 0 0 0 0 0 0 0 0 0 0 0 0 0 0 0 0 0 0 0 0
0 0 0 0 0 0 0 0 0 0 0 0 0 0 0 0 0 0 0 0 0 0 0 0 0 0 0 0 0 0 0 0 0 0 0 0 0 0 0 0 0 0 0
0 0 0 0 0 0 0 0 0 0 0 0 0 0 0 0 0 0 0 0 0 0 0 0 0 0 0 0 0 0 0 0 0 0 0 0 0 0 0 0 0 0 0
0 0 0 0 0 0 0 0 0 0 0 0 0 0 0 0 0 0 0 0 0 0 0 0 0 0 0 0 0 0 0 0 0 0 0 0 0 0 0 0 0 0 0
0 0 0 0 0 0 0 0 0 0 0 0 0 0 0 0 0 0 0 0 0 0 0 0 0 0 0 0 0 0 0 0 0 0 0 0 0 0 0 0 0 0 0
0 0 0 0 0 0 0 0 0 0 0 0 0 0 0 0 0 0 0 0 0 0 0 0 0 0 0 0 0 0 0 0 0 0 0 0 0 0 0 0 0 0 0
0 0 0 0 0 0 0 0 0 0 0 0 0 0 0 0 0 0 0 0 0 0 0 0 0 0 0 0 0 0 0 0 0 0 0 0 0 0 0 0 0 0 0
0 0 0 0 0 0 0 0 0 0 0 0 0 0 0 0 0 0 0 0 0 0 0 0 0 0 0 0 0 0 0 0 0 0 0 0 0 0 0 0 0 0 0
0 0 0 0 0 0 0 0 0 0 0 0 0 0 0 0 0 0 0 0 0 0 0 0 0 0 0 0 0 0 0 0 0 0 0 0 0 0 0 0 0 0 0
0 0 0 0 0 0 0 0 0 0 0 0 0 0 0 0 0 0 0 0 0 0 0 0 0 0 0 0 0 0 0 0 0 0 0 0 0 0 0 0 0 0 0
0 0 0 0 0 0 0 0 0 0 0 0 0 0 0 0 0 0 0 0 0 0 0 0 0 0 0 0 0 0 0 0 0 0 0 0 0 0 0 0 0 0 0
0 0 0 0 0 0 0 0 0 0 0 0 0 0 0 0 0 0 0 0 0 0 0 0 0 0 0 0 0 0 0 0 0 0 0 0 0 0 0 0 0 0 0
0 0 0 0 0 0 0 0 0 0 0 0 0 0 0 0 0 0 0 0 0 0 0 0 0 0 0 0 0 0 0 0 0 0 0 0 0 0 0 0 0 0 0
Wind_Speed_500mb
22 9 1 5 7 8 9 11 14 25 24 25 17 25 18 16 14 16 27 28 24 21 17 25 22 16 14 16 13 12 14 18 18 21 23 25 26 25 19 11 6 15 13
25 11 3 2 6 6 7 11 23 21 21 18 16 17 12 8 16 14 23 21 14 11 18 20 15 12 16 18 14 15 14 16 20 23 27 24 22 24 32 17 14 16 17
23 13 6 4 5 6 7 14 16 16 17 17 12 14 13 11 6 19 15 13 18 23 10 12 13 10 11 16 11 12 12 16 21 24 23 22 21 28 31 29 19 20 20
19 14 8 6 5 5 7 11 12 13 15 15 13 13 12 11 12 19 12 11 15 20 14 9 10 11 13 14 11 16 15 16 21 19 20 20 25 33 30 22 20 24 25
18 14 9 7 6 6 8 10 12 13 12 12 15 15 13 9 20 15 7 5 11 8 3 1 5 11 16 12 10 15 22 23 22 18 19 20 24 28 23 21 25 33 28
17 13 9 8 7 8 9 10 12 14 15 15 14 12 12 16 22 14 12 17 10 1 9 4 7 8 10 11 16 17 23 23 24 20 18 16 20 19 23 24 28 38 35
16 12 8 9 9 8 10 11 12 15 17 17 16 14 13 11 15 16 10 15 22 7 8 6 5 6 9 10 15 20 21 24 24 23 19 15 12 16 23 28 34 39 29
14 10 8 9 9 10 11 11 13 15 16 16 17 16 14 12 11 13 10 14 21 14 3 8 9 10 14 15 17 20 22 23 25 26 24 20 15 12 23 26 32 33 31
14 11 9 9 10 11 11 12 14 14 15 16 17 17 16 15 12 9 10 9 12 18 22 18 16 15 17 18 20 23 27 28 26 27 26 24 19 16 16 31 28 28 33
17 15 10 9 11 13 13 13 14 14 16 18 19 19 20 20 17 13 12 11 15 18 23 26 17 17 18 22 27 28 28 24 24 25 25 26 23 21 19 20 28 31 36
20 17 12 10 12 13 14 14 15 15 17 19 21 22 22 21 21 21 21 22 21 20 20 23 26 24 26 28 28 29 28 27 25 25 26 27 25 24 22 23 18 26 34
21 19 14 12 14 15 15 15 15 15 18 19 19 19 20 22 23 24 25 24 23 21 20 23 24 26 29 31 32 34 31 29 29 29 30 29 29 27 27 30 34 31 29
21 20 15 13 15 17 16 16 15 16 17 18 18 19 21 23 24 25 26 26 26 25 24 25 26 28 30 32 33 34 33 33 33 34 34 34 35 33 31 32 35 39 41
23 21 17 16 16 18 17 15 13 13 12 13 16 18 19 21 26 27 29 30 30 28 26 26 28 30 32 34 36 38 38 37 37 38 38 34 35 37 38 36 38 40 42
25 23 19 19 18 18 15 11 9 7 6 6 9 11 16 19 23 27 29 30 33 32 28 27 29 30 31 33 36 37 37 38 39 41 45 41 38 39 38 39 41 43 44
24 24 22 20 18 16 13 9 5 3 4 5 13 16 20 19 22 27 28 31 34 34 30 27 28 30 31 35 37 39 43 44 46 46 47 49 45 41 41 43 41 44 47
26 25 20 20 19 17 14 11 11 12 11 12 13 16 21 21 24 30 33 32 36 30 28 28 30 33 35 36 39 42 45 46 49 50 48 47 47 47 41 38 41 46 45
32 28 25 23 21 20 18 18 18 16 16 17 17 17 19 24 32 36 36 32 28 25 25 28 31 35 37 37 40 44 46 47 44 40 37 31 44 46 46 40 46 45 45
33 33 29 28 27 24 23 24 21 19 17 14 15 17 23 28 33 24 20 22 25 27 30 33 34 39 42 42 48 54 50 45 44 38 28 48 62 44 49 46 45 45 46
36 33 33 34 31 29 29 24 21 19 17 15 16 20 25 28 24 22 24 26 28 29 30 32 36 39 43 47 56 54 57 47 50 40 49 77 38 63 46 42 59 58 59
43 37 29 35 34 32 28 24 22 20 17 16 21 24 26 23 24 23 23 24 25 26 29 35 39 44 45 48 58 64 61 56 40 41 84 48 68 52 48 70 69 74 71
49 45 37 34 31 29 26 24 23 22 21 23 25 22 23 23 21 18 19 21 23 26 29 33 38 46 49 48 47 47 34 52 31 85 44 77 57 52 57 66 68 68 74
55 50 44 37 32 32 26 26 30 23 22 24 21 23 23 18 15 16 17 21 24 27 31 36 40 44 50 52 49 32 28 27 86 33 80 38 36 50 53 57 54 56 68
54 53 48 39 34 33 31 32 30 25 25 25 22 21 15 12 13 14 17 21 25 30 34 38 43 47 51 54 53 35 36 47 40 78 77 48 67 58 64 52 56 58 62
50 50 47 42 41 37 37 34 28 27 28 21 18 13 11 10 10 13 18 23 28 33 38 43 48 51 54 57 57 59 56 45 45 51 90 116 108 71 61 63 58 65 62
54 51 48 45 41 39 31 26 23 22 19 18 15 12 7 5 9 15 21 28 34 40 44 48 52 56 60 64 67 67 62 49 54 55 67 88 94 128 98 71 60 65 74
Wind_Direction_500mb
159 169 283 2 35 38 41 65 89 77 63 61 83 62 74 54 32 63 51 69 55 86 65 56 66 68 46 26 28 14 4 1 2 3 359 354 359 356 341 325 339 359 12
151 167 185 64 57 63 58 77 94 81 82 61 84 74 51 51 54 67 66 61 48 62 72 56 50 23 18 4 8 9 359 352 342 354 353 6 6 9 4 352 321 318 318
151 170 155 107 71 67 73 88 92 106 119 89 79 92 60 44 58 79 65 67 81 58 58 57 29 11 13 340 351 351 348 337 342 354 11 22 10 354 349 345 341 339 324
150 155 153 113 89 82 91 91 85 92 100 103 74 102 50 38 43 59 84 65 109 80 86 87 53 7 356 342 351 348 341 339 346 358 15 17 15 4 7 29 17 356 345
151 153 140 110 84 84 96 89 77 71 79 102 101 123 83 61 92 66 40 2 101 121 179 6 328 317 341 341 339 334 335 335 348 4 10 9 15 17 18 2 353 337 334
154 144 126 103 92 93 96 83 70 68 68 70 86 119 78 61 98 63 17 24 17 282 29 36 11 347 342 344 328 322 333 354 355 358 357 5 11 18 358 346 339 332 341
155 141 118 102 100 102 98 86 75 72 71 69 69 67 70 67 87 88 28 8 13 90 40 41 355 336 326 322 323 336 344 349 353 356 349 352 350 17 351 331 335 335 338
156 150 125 110 113 115 107 96 88 83 77 72 71 69 67 63 63 74 53 19 16 59 19 327 331 343 345 345 338 333 332 335 337 340 342 338 327 327 352 328 326 333 344
172 165 139 122 123 122 113 102 95 88 82 79 73 67 63 57 54 53 52 36 13 7 0 346 351 353 347 341 334 330 331 332 332 333 336 332 327 303 337 346 321 323 328
174 165 146 131 132 130 124 113 102 94 83 72 66 63 59 55 50 40 20 357 352 351 348 358 2 354 353 347 348 348 348 348 342 338 337 333 326 311 297 337 335 320 324
174 167 153 142 139 139 132 120 107 93 80 73 69 63 58 53 46 39 28 14 5 360 353 358 7 10 6 357 350 351 354 354 349 344 340 333 325 315 295 289 309 328 321
181 172 163 154 150 147 136 126 112 92 83 78 69 60 49 40 31 27 24 18 10 3 356 354 355 358 0 356 351 354 349 344 341 335 330 328 326 320 308 295 287 289 297
183 179 173 160 153 149 143 136 115 96 87 74 58 45 34 26 21 17 10 5 1 359 358 355 352 348 347 349 349 347 343 339 335 332 330 326 324 319 309 304 299 298 297
186 183 179 170 163 155 149 137 117 100 82 63 36 20 12 10 5 359 356 354 353 352 351 350 347 344 342 341 342 344 344 345 343 339 337 337 336 332 323 308 300 294 293
191 186 182 176 167 159 154 146 130 101 70 28 345 338 345 343 340 338 339 342 344 341 339 339 338 338 336 336 336 335 336 334 331 326 325 325 325 321 322 319 312 303 295
194 190 187 179 177 176 172 169 171 162 318 296 307 324 320 323 327 330 332 331 329 328 332 334 333 335 335 332 334 331 329 327 324 320 318 317 316 313 311 310 311 311 303
200 193 185 196 199 198 199 211 233 258 279 284 296 306 313 326 336 330 326 321 319 324 331 336 337 336 334 331 329 330 329 328 327 321 316 317 316 316 309 304 304 305 303
204 196 199 202 203 211 224 232 244 262 274 287 295 306 319 328 326 317 312 309 318 332 345 342 336 337 337 333 328 329 328 328 332 326 322 327 330 320 314 302 301 298 297
206 207 213 214 219 220 227 234 246 260 273 280 296 304 315 319 315 321 335 341 347 346 340 339 340 337 336 331 329 331 331 329 336 331 335 327 324 321 314 305 307 302 300
216 220 226 225 226 228 234 238 250 262 267 275 289 302 307 308 325 330 332 335 338 342 340 338 337 337 336 333 334 336 336 336 331 324 327 323 322 322 314 317 318 313 310
221 223 239 226 227 230 236 238 251 257 260 273 285 285 292 313 319 324 329 335 341 341 340 340 340 339 341 339 340 334 337 333 320 315 323 310 319 321 310 321 322 320 320
225 227 231 224 226 232 232 238 250 250 260 269 264 279 299 305 314 327 334 334 340 344 343 342 342 341 342 342 337 336 328 330 325 316 315 317 312 313 310 314 316 318 320
223 228 225 223 228 228 232 249 253 241 240 252 268 278 291 305 320 329 335 343 347 347 346 345 340 340 337 335 334 325 327 310 319 328 314 311 301 306 301 305 301 305 312
219 218 216 217 227 236 244 247 248 239 238 248 263 270 278 297 317 332 346 349 346 343 338 336 335 333 331 327 327 323 304 301 311 316 311 302 305 303 304 305 302 303 302
207 208 211 220 229 235 244 245 239 236 242 248 249 247 269 297 326 349 346 339 333 330 330 330 329 327 327 325 324 319 311 303 292 285 295 308 308 305 301 302 301 303 300
204 205 211 217 226 235 235 229 226 228 229 225 221 238 258 305 339 336 331 328 329 329 326 324 324 326 326 322 321 317 309 298 293 289 286 292 297 307 306 304 301 297 306
Wind_Speed_850mb
22 9 1 5 7 8 9 11 14 25 24 25 17 25 18 16 14 16 27 28 24 21 17 25 22 16 14 16 13 12 14 18 18 21 23 25 26 25 19 11 6 15 13
25 11 3 2 6 6 7 11 23 21 21 18 16 17 12 8 16 14 23 21 14 11 18 20 15 12 16 18 14 15 14 16 20 23 27 24 22 24 32 17 14 16 17
23 13 6 4 5 6 7 14 16 16 17 17 12 14 13 11 6 19 15 13 18 23 10 12 13 10 11 16 11 12 12 16 21 24 23 22 21 28 31 29 19 20 20
19 14 8 6 5 5 7 11 12 13 15 15 13 13 12 11 12 19 12 11 15 20 14 9 10 11 13 14 11 16 15 16 21 19 20 20 25 33 30 22 20 24 25
18 14 9 7 6 6 8 10 12 13 12 12 15 15 13 9 20 15 7 5 11 8 3 1 5 11 16 12 10 15 22 23 22 18 19 20 24 28 23 21 25 33 28
17 13 9 8 7 8 9 10 12 14 15 15 14 12 12 16 22 14 12 17 10 1 9 4 7 8 10 11 16 17 23 23 24 20 18 16 20 19 23 24 28 38 35
16 12 8 9 9 8 10 11 12 15 17 17 16 14 13 11 15 16 10 15 22 7 8 6 5 6 9 10 15 20 21 24 24 23 19 15 12 16 23 28 34 39 29
14 10 8 9 9 10 11 11 13 15 16 16 17 16 14 12 11 13 10 14 21 14 3 8 9 10 14 15 17 20 22 23 25 26 24 20 15 12 23 26 32 33 31
14 11 9 9 10 11 11 12 14 14 15 16 17 17 16 15 12 9 10 9 12 18 22 18 16 15 17 18 20 23 27 28 26 27 26 24 19 16 16 31 28 28 33
17 15 10 9 11 13 13 13 14 14 16 18 19 19 20 20 17 13 12 11 15 18 23 26 17 17 18 22 27 28 28 24 24 25 25 26 23 21 19 20 28 31 36
20 17 12 10 12 13 14 14 15 15 17 19 21 22 22 21 21 21 21 22 21 20 20 23 26 24 26 28 28 29 28 27 25 25 26 27 25 24 22 23 18 26 34
21 19 14 12 14 15 15 15 15 15 18 19 19 19 20 22 23 24 25 24 23 21 20 23 24 26 29 31 32 34 31 29 29 29 30 29 29 27 27 30 34 31 29
21 20 15 13 15 17 16 16 15 16 17 18 18 19 21 23 24 25 26 26 26 25 24 25 26 28 30 32 33 34 33 33 33 34 34 34 35 33 31 32 35 39 41
23 21 17 16 16 18 17 15 13 13 12 13 16 18 19 21 26 27 29 30 30 28 26 26 28 30 32 34 36 38 38 37 37 38 38 34 35 37 38 36 38 40 42
25 23 19 19 18 18 15 11 9 7 6 6 9 11 16 19 23 27 29 30 33 32 28 27 29 30 31 33 36 37 37 38 39 41 45 41 38 39 38 39 41 43 44
24 24 22 20 18 16 13 9 5 3 4 5 13 16 20 19 22 27 28 31 34 34 30 27 28 30 31 35 37 39 43 44 46 46 47 49 45 41 41 43 41 44 47
26 25 20 20 19 17 14 11 11 12 11 12 13 16 21 21 24 30 33 32 36 30 28 28 30 33 35 36 39 42 45 46 49 50 48 47 47 47 41 38 41 46 45
32 28 25 23 21 20 18 18 18 16 16 17 17 17 19 24 32 36 36 32 28 25 25 28 31 35 37 37 40 44 46 47 44 40 37 31 44 46 46 40 46 45 45
33 33 29 28 27 24 23 24 21 19 17 14 15 17 23 28 33 24 20 22 25 27 30 33 34 39 42 42 48 54 50 45 44 38 28 48 62 44 49 46 45 45 46
36 33 33 34 31 29 29 24 21 19 17 15 16 20 25 28 24 22 24 26 28 29 30 32 36 39 43 47 56 54 57 47 50 40 49 77 38 63 46 42 59 58 59
43 37 29 35 34 32 28 24 22 20 17 16 21 24 26 23 24 23 23 24 25 26 29 35 39 44 45 48 58 64 61 56 40 41 84 48 68 52 48 70 69 74 71
49 45 37 34 31 29 26 24 23 22 21 23 25 22 23 23 21 18 19 21 23 26 29 33 38 46 49 48 47 47 34 52 31 85 44 77 57 52 57 66 68 68 74
55 50 44 37 32 32 26 26 30 23 22 24 21 23 23 18 15 16 17 21 24 27 31 36 40 44 50 52 49 32 28 27 86 33 80 38 36 50 53 57 54 56 68
54 53 48 39 34 33 31 32 30 25 25 25 22 21 15 12 13 14 17 21 25 30 34 38 43 47 51 54 53 35 36 47 40 78 77 48 67 58 64 52 56 58 62
50 50 47 42 41 37 37 34 28 27 28 21 18 13 11 10 10 13 18 23 28 33 38 43 48 51 54 57 57 59 56 45 45 51 90 116 108 71 61 63 58 65 62
54 51 48 45 41 39 31 26 23 22 19 18 15 12 7 5 9 15 21 28 34 40 44 48 52 56 60 64 67 67 62 49 54 55 67 88 94 128 98 71 60 65 74
Wind_Direction_850mb
159 169 283 2 35 38 41 65 89 77 63 61 83 62 74 54 32 63 51 69 55 86 65 56 66 68 46 26 28 14 4 1 2 3 359 354 359 356 341 325 339 359 12
151 167 185 64 57 63 58 77 94 81 82 61 84 74 51 51 54 67 66 61 48 62 72 56 50 23 18 4 8 9 359 352 342 354 353 6 6 9 4 352 321 318 318
151 170 155 107 71 67 73 88 92 106 119 89 79 92 60 44 58 79 65 67 81 58 58 57 29 11 13 340 351 351 348 337 342 354 11 22 10 354 349 345 341 339 324
150 155 153 113 89 82 91 91 85 92 100 103 74 102 50 38 43 59 84 65 109 80 86 87 53 7 356 342 351 348 341 339 346 358 15 17 15 4 7 29 17 356 345
151 153 140 110 84 84 96 89 77 71 79 102 101 123 83 61 92 66 40 2 101 121 179 6 328 317 341 341 339 334 335 335 348 4 10 9 15 17 18 2 353 337 334
154 144 126 103 92 93 96 83 70 68 68 70 86 119 78 61 98 63 17 24 17 282 29 36 11 347 342 344 328 322 333 354 355 358 357 5 11 18 358 346 339 332 341
155 141 118 102 100 102 98 86 75 72 71 69 69 67 70 67 87 88 28 8 13 90 40 41 355 336 326 322 323 336 344 349 353 356 349 352 350 17 351 331 335 335 338
156 150 125 110 113 115 107 96 88 83 77 72 71 69 67 63 63 74 53 19 16 59 19 327 331 343 345 345 338 333 332 335 337 340 342 338 327 327 352 328 326 333 344
172 165 139 122 123 122 113 102 95 88 82 79 73 67 63 57 54 53 52 36 13 7 0 346 351 353 347 341 334 330 331 332 332 333 336 332 327 303 337 346 321 323 328
174 165 146 131 132 130 124 113 102 94 83 72 66 63 59 55 50 40 20 357 352 351 348 358 2 354 353 347 348 348 348 348 342 338 337 333 326 311 297 337 335 320 324
174 167 153 142 139 139 132 120 107 93 80 73 69 63 58 53 46 39 28 14 5 360 353 358 7 10 6 357 350 351 354 354 349 344 340 333 325 315 295 289 309 328 321
181 172 163 154 150 147 136 126 112 92 83 78 69 60 49 40 31 27 24 18 10 3 356 354 355 358 0 356 351 354 349 344 341 335 330 328 326 320 308 295 287 289 297
183 179 173 160 153 149 143 136 115 96 87 74 58 45 34 26 21 17 10 5 1 359 358 355 352 348 347 349 349 347 343 339 335 332 330 326 324 319 309 304 299 298 297
186 183 179 170 163 155 149 137 117 100 82 63 36 20 12 10 5 359 356 354 353 352 351 350 347 344 342 341 342 344 344 345 343 339 337 337 336 332 323 308 300 294 293
191 186 182 176 167 159 154 146 130 101 70 28 345 338 345 343 340 338 339 342 344 341 339 339 338 338 336 336 336 335 336 334 331 326 325 325 325 321 322 319 312 303 295
194 190 187 179 177 176 172 169 171 162 318 296 307 324 320 323 327 330 332 331 329 328 332 334 333 335 335 332 334 331 329 327 324 320 318 317 316 313 311 310 311 311 303
200 193 185 196 199 198 199 211 233 258 279 284 296 306 313 326 336 330 326 321 319 324 331 336 337 336 334 331 329 330 329 328 327 321 316 317 316 316 309 304 304 305 303
204 196 199 202 203 211 224 232 244 262 274 287 295 306 319 328 326 317 312 309 318 332 345 342 336 337 337 333 328 329 328 328 332 326 322 327 330 320 314 302 301 298 297
206 207 213 214 219 220 227 234 246 260 273 280 296 304 315 319 315 321 335 341 347 346 340 339 340 337 336 331 329 331 331 329 336 331 335 327 324 321 314 305 307 302 300
216 220 226 225 226 228 234 238 250 262 267 275 289 302 307 308 325 330 332 335 338 342 340 338 337 337 336 333 334 336 336 336 331 324 327 323 322 322 314 317 318 313 310
221 223 239 226 227 230 236 238 251 257 260 273 285 285 292 313 319 324 329 335 341 341 340 340 340 339 341 339 340 334 337 333 320 315 323 310 319 321 310 321 322 320 320
225 227 231 224 226 232 232 238 250 250 260 269 264 279 299 305 314 327 334 334 340 344 343 342 342 341 342 342 337 336 328 330 325 316 315 317 312 313 310 314 316 318 320
223 228 225 223 228 228 232 249 253 241 240 252 268 278 291 305 320 329 335 343 347 347 346 345 340 340 337 335 334 325 327 310 319 328 314 311 301 306 301 305 301 305 312
219 218 216 217 227 236 244 247 248 239 238 248 263 270 278 297 317 332 346 349 346 343 338 336 335 333 331 327 327 323 304 301 311 316 311 302 305 303 304 305 302 303 302
207 208 211 220 229 235 244 245 239 236 242 248 249 247 269 297 326 349 346 339 333 330 330 330 329 327 327 325 324 319 311 303 292 285 295 308 308 305 301 302 301 303 300
204 205 211 217 226 235 235 229 226 228 229 225 221 238 258 305 339 336 331 328 329 329 326 324 324 326 326 322 321 317 309 298 293 289 286 292 297 307 306 304 301 297 306